www.pogodaiklimat.ru

Погода и климат >> Архив погоды >> Россия >> Чувашия >> Порецкое


АРХИВ ПОГОДЫ в Порецком

Время (UTC), дата Ветер
(напр.,м/с)
 
Видим.   Явления Облачность Т
(С)
Тd
(С)
f
(%)
Тe
(С)
Тes
(С)
Комфортность P
(гПа)
Po
(гПа)
Тmin
(С)
Tmax
(С)
R
(мм)
R24
(мм)
S
(см)
12 12.06 СЗ 4-8
{11}
10 км 9/6 600 м
[Sc Ac und]
+25.3 +7.8 33 +25 +27 комфорт 1014.8 999.1
15 12.06 Ю 3-6
{9}
10 км 9/0
[Ac und]
+21.5 +11.0 51 +23 +24 комфорт 1015.5 999.6 +26.0
18 12.06 Ю 2-3
{9}
10 км 9/0
[Ac und]
+17.8 +7.8 52 +18 +18 1016.4 1000.4
21 12.06 ЮЗ 5-9
{11}
10 км 9/0
[Ac und Ci fib]
+15.3 +4.1 47 +14 +14 1018.3 1002.1
00 13.06 С 4-6
{11}
10 км 6/0
[Ac und Ci fib]
+8.8 +0.2 55 +6 +6 1022.5 1005.7
03 13.06 С 3-6
{8}
10 км ясно +8.3 0.0 56 +6 +8 1024.1 1007.3 +8.1
06 13.06 С 4-8
{9}
10 км 6/6 600 м
[Cu hum]
+11.6 +0.4 46 +10 +13 1024.3 1007.7
09 13.06 С 4-8
{10}
10 км 4/4 600 м
[Cu hum]
+14.7 0.0 37 +14 +20 1024.7 1008.3
12 13.06 С 5-8
{10}
10 км ясно +17.2 -0.7 30 +17 +22 1023.8 1007.6
15 13.06 СЗ 4-8
{10}
10 км ясно +17.0 +0.2 32 +17 +18 1023.2 1007.0 +17.4
18 13.06 С 1-2
{8}
10 км 4/0
[Ac und Ci fib]
+13.5 +1.5 44 +14 +14 1023.2 1006.8
21 13.06 СЗ 1-2
{3}
10 км 6/0
[Ci fib]
+9.8 +2.3 60 +10 +10 1023.4 1006.8
00 14.06 ЮЗ 2-3
{4}
10 км 8/0
[Ci fib]
+5.4 +1.6 76 +3 +3 1024.4 1007.5
03 14.06 ЮЗ 1-2
{4}
10 км 6/0
[Ci fib]
+8.8 +2.9 66 +8 +11 1023.5 1006.9 +5.2
06 14.06 ЮЗ 2-3
{4}
10 км 9/0
[Ac und Ci fib]
+17.1 +3.8 41 +17 +23 1022.2 1006.0
09 14.06 З 4-6
{7}
10 км 10/0
[As op]
+18.2 +2.3 35 +18 +20 1020.3 1004.1
12 14.06 штиль 0-6
{7}
50 км ?/? +17.1 +4.1 42 +17 +17 1018.4 1002.3
15 14.06 С 3-4
{7}
10 км слаб. дождь 10/10 600 м
[Frnb Ns]
+10.4 +7.3 81 +8 +8 1017.6 1001.2 +18.4 0.5
18 14.06 СВ 2-3
{5}
10 км {дождь} 10/10 600 м
[Sc]
+9.7 +7.6 87 +8 +8 1016.0 999.4
21 14.06 С 1-2
{4}
10 км 10/10 600 м
[Sc]
+9.8 +8.0 89 +9 +9 1015.9 999.4
00 15.06 С 1-1
{2}
500 м туман ?/? +8.0 +7.0 93 +7 +7 1015.3 998.7
03 15.06 С 1-2
{3}
10 км в посл. час туман ясно +8.4 +6.8 90 +8 +11 1016.3 999.7 +6.7 0.3
06 15.06 С 2-3
{4}
10 км {туман} 9/8 600 м
[Cu hum Ci fib]
+13.4 +7.0 65 +13 +15 1015.7 999.4
09 15.06 С 2-4
{5}
10 км 9/9 600 м
[Cu hum]
+15.5 +5.1 50 +16 +17 1015.6 999.4
12 15.06 СЗ 1-3
{5}
10 км 9/9 600 м
[Cu hum]
+16.9 +4.6 44 +18 +19 1014.7 998.6
15 15.06 З 2-3
{5}
10 км 6/6 600 м
[Cu hum]
+18.2 +3.2 37 +19 +20 1013.0 997.0 +18.4
18 15.06 З 1-2
{2}
10 км 9/8 600 м
[Sc Ac und]
+13.6 +6.2 61 +14 +14 1013.5 997.3
21 15.06 З 1-2
{3}
10 км 9/9 600 м
[Sc]
+12.4 +7.3 71 +13 +13 1012.8 996.6
00 16.06 ЮЗ 2-3
{4}
10 км 9/3 600 м
[Sc Cs]
+9.8 +6.4 79 +8 +8 1012.6 996.1
03 16.06 ЮЗ 2 10 км 8/0 1500 м
[Ac und]
+11.0 +7.7 80 +10 +11 1012.8 996.4 +8.8
06 16.06 С 2-5
{5}
10 км 6/6 600 м
[Cu hum]
+17.8 +8.2 53 +18 +23 1012.2 996.3
09 16.06 З 2-6
{7}
10 км 6/3 600 м
[Cu hum Ci fib]
+20.0 +5.6 39 +21 +32 комфорт 1011.6 995.7
12 16.06 СЗ 3-5
{9}
10 км 9/9 600 м
[Sc]
+20.1 +6.1 40 +21 +22 комфорт 1010.8 995.2
15 16.06 СЗ 4-5
{7}
10 км 4/3 600 м
[Sc Ac und]
+20.9 +4.8 35 +22 +23 комфорт 1010.9 995.1 +21.4
18 16.06 З 1-1
{6}
10 км 3/0
[Ac und]
+15.0 +7.6 61 +16 +16 1011.7 995.6
21 16.06 ЮЗ 3-4
{4}
10 км ясно +12.2 +6.8 70 +11 +11 1012.5 996.1
00 17.06 ЮЗ 5-5
{5}
10 км 3/0
[Ci fib]
+10.1 +6.7 79 +7 +7 1013.1 996.6
03 17.06 Ю 3-4
{5}
10 км 1/0
[Ac und]
+12.8 +8.4 75 +11 +13 1013.0 996.8 +9.8
06 17.06 З 3-3
{7}
10 км 3/0
[Ac und]
+20.3 +9.7 51 +22 +29 комфорт 1012.2 996.4
09 17.06 З 6-6
{10}
10 км 8/8 600 м
[Cu hum]
+24.0 +7.1 34 +24 +26 комфорт 1011.2 995.6
12 17.06 З 5-5
{10}
10 км 6/6 600 м
[Cu hum]
+25.1 +6.1 30 +25 +27 комфорт 1010.8 995.2
15 17.06 СЗ 4-4
{10}
10 км 9/6 600 м
[Cu hum Ac und]
+22.8 +5.8 33 +23 +24 комфорт 1010.5 994.8 +25.4
18 17.06 З 2-2
{7}
10 км 9/0
[Ac und Ci fib]
+18.8 +8.6 51 +20 +20 1010.7 994.8
21 17.06 ЮЗ 3-3
{4}
10 км 8/0
[Ci fib]
+15.5 +9.3 67 +15 +15 1011.0 994.9
00 18.06 ЮЗ 3-3
{4}
10 км 6/0
[Ci fib]
+12.6 +8.8 78 +11 +11 1011.0 994.8
03 18.06 ЮЗ 3-3
{5}
10 км 3/0
[Ci fib]
+16.1 +10.9 71 +16 +18 1011.2 995.2 +12.5
06 18.06 ЮЗ 1-2
{3}
10 км 8/0
[Ci fib]
+22.7 +12.1 51 +25 +36 комфорт 1010.7 995.0
09 18.06 З 3-6
{8}
10 км 8/6 600 м
[Cu hum Ci fib]
+24.5 +9.8 39 +25 +30 комфорт 1010.2 994.6
12 18.06 З 3-5
{7}
10 км 8/8 600 м
[Cu hum]
+24.9 +8.9 36 +25 +27 комфорт 1009.0 993.4
15 18.06 З 4-8
{14}
10 км 8/0
[Ac und]
+19.7 +12.6 64 +21 +22 комфорт 1009.2 993.4 +25.1
18 18.06 ЮЗ 3-4
{8}
10 км 6/0
[Ac und]
+17.7 +13.8 78 +18 +18 1009.2 993.3
21 18.06 ЮЗ 3-4
{5}
10 км 9/0
[Ac und]
+16.8 +13.8 82 +17 +17 1009.1 993.1
00 19.06 З 2-3
{4}
10 км 6/0
[Ac und]
+15.9 +12.1 78 +16 +16 1009.6 993.6
03 19.06 З 2-3
{4}
10 км 4/0
[Ac und]
+16.6 +12.6 77 +17 +19 1010.1 994.1 +15.7
06 19.06 СЗ 3-4
{5}
10 км 4/0
[Ac und]
+22.1 +13.4 58 +25 +32 комфорт 1011.1 995.4

 

Местоположение метеостанции Порецкое (Чувашия, Россия): широта 55.18 долгота 46.33 высота над уровнем моря 136 м.

В архиве по умолчанию представлена погода в Порецком за последнюю неделю. Архивные данные за месяц целиком и за предыдущие месяцы, начиная с января 2011 года, Вы можете получить, выбрав интересующий диапазон дат из раскрывающегося списка и нажав кнопку "Ввод!".


*Определитесь, кто Вы:
робот инопланетянин человек

Внимание! Время в таблицах - всемирное. Для получения местного времени необходимо прибавить поправку, которая равна 3 ч.

Смотрите также архив погоды в соседних городах и на ближайших метеорологических станциях:

Погода в Алатыре (Чувашия, Россия) (43 км)
Погода в Сергаче (Нижегородская область, Россия) (65 км)
Погода в Большом Болдино (Нижегородская область, Россия) (67 км)
Погода в Сурском (Ульяновская область, Россия) (81 км)
Погода в Канаше (Чувашия, Россия) (81 км)
Погода в Батырево (Чувашия, Россия) (82 км)
Погода в Дрожжаном (Татарстан, Россия) (94 км)
Погода в Больших Березниках (Мордовия, Россия) (115 км)
Погода в Лукоянове (Нижегородская область, Россия) (118 км)
Погода в Чебоксарах (Чувашия, Россия) (118 км)

Пояснения к столбцам:

Ветер - указаны скорость ветра в м/с - средняя за 10 мин, порывы в срок и между сроками (в фигурных скобках) и направление, откуда дует ветер: С - северный, СВ - северо-восточный, В - восточный, ЮВ - юго-восточный, Ю - южный, ЮЗ - юго-западный, З - западный, СЗ - северо-западный.
Видимость - горизонтальная дальность видимости в метрах или километрах. При видимости от 1 до 10 км при отсутствии осадков обычно наблюдается дымка, при ухудшении видимости до 1 км и менее - туман. В сухую погоду видимость может ухудшаться дымом, пылью или мглою.
Явления - указаны атмосферные явления, наблюдавшиеся в срок или в последний час перед сроком; фигурными скобками обозначены явления, наблюдавшиеся между сроками (за 1-3 часа до срока); квадратными скобками обозначены град или гололедные отложения с указанием их диаметра в мм.
Облачность - указаны через наклонную черту общая и нижняя облачность в баллах и высота нижней границы облаков в метрах; квадратными скобками обозначены формы облаков: Ci - перистые, Cs - перисто-слоистые, Cc - перисто-кучевые, Ac - высококучевые, As - высокослоистые, Sc - слоисто-кучевые, Ns - слоисто-дождевые, Cu - кучевые, Cb - кучево-дождевые. Подробнее классификацию облаков см. в Атласе облаков (PDF).
T - Температура воздуха - температура, измеренная на высоте 2 м над землей.
Td - Температура точки росы - температура, при понижении до которой содержащийся в воздухе водяной пар достигнет насыщения.
f - Относительная влажность воздуха - влажноcть воздуха, измеренная на высоте 2 м над землей.
Te - Эффективная температура - температура, которую ощущает одетый по сезону человек в тени. Характеристика душности погоды. При расчете учитывается влияние влажности воздуха и скорости ветра на теплоощущения человека.
Tes - Эффективная температура на солнце - температура, которую ощущает человек, с поправкой на солнечный нагрев. Характеристика знойности погоды. Зависит от высоты солнца над горизонтом, облачности и скорости ветра. Ночью, в пасмурную погоду, а также при ветре 12 м/с и более поправка равна нулю.
P - Атмосферное давление - приведенное к уровню моря атмосферное давление.
Po - Атмосферное давление - измеренное на уровне метеостанции атмосферное давление.
Tmin - Минимальная температура - минимум температуры воздуха на высоте 2 м над землей.
Tmax - Максимальная температура - максимум температуры воздуха на высоте 2 м над землей.
R - Количество осадков - Количество выпавших осадков за период времени, мм. При наведении курсора мыши на число - период времени, за который выпало указанное количество осадков.
R24 - Количество осадков - Количество выпавших осадков за 24 часа, мм.
S - Снежный покров - Высота снежного покрова, см. При наведении курсора мыши на число - состояние снежного покрова и степень покрытия местности в баллах.